Time,TemperatureF,DewpointF,PressureIn,WindDirection,WindDirectionDegrees,WindSpeedMPH,WindSpeedGustMPH,Humidity,HourlyPrecipIn,Conditions,Clouds,dailyrainin,SolarRadiationWatts/m^2,SoftwareType,DateUTC
2013-02-16 00:00:00,22.9,17.1,30.07,WNW,290,0.0,1.0,78,0.00,,FEW046,0.00,0.00,VWS V14.01,2013-02-16 05:00:00,
2013-02-16 00:05:00,22.9,17.4,30.07,WNW,290,2.0,2.0,79,0.00,,FEW046,0.00,0.00,VWS V14.01,2013-02-16 05:05:00,
2013-02-16 00:10:00,22.9,17.4,30.07,WNW,290,1.0,2.0,79,0.00,,FEW046,0.00,0.00,VWS V14.01,2013-02-16 05:10:00,
2013-02-16 00:15:00,22.1,15.1,30.06,West,266,2.2,3.5,74,0.00,FEW,OVC,0.00,0.0,WeatherDisplay:10.37,2013-02-16 05:15:00,
2013-02-16 00:20:00,22.8,17.0,30.07,WNW,286,1.0,1.0,78,0.00,,FEW046,0.00,0.00,VWS V14.01,2013-02-16 05:20:00,
2013-02-16 00:23:00,22.9,17.4,30.07,WNW,286,0.0,1.0,79,0.00,,FEW046,0.00,0.00,VWS V14.01,2013-02-16 05:23:00,
2013-02-16 00:28:00,22.9,17.4,30.07,WNW,286,0.0,1.0,79,0.00,,FEW046,0.00,0.00,VWS V14.01,2013-02-16 05:28:00,
2013-02-16 00:33:00,22.2,15.5,30.05,West,266,1.9,3.5,75,0.00,BKN,OVC,0.00,0.0,WeatherDisplay:10.37,2013-02-16 05:33:00,
2013-02-16 00:38:00,22.9,17.4,30.07,WNW,286,0.0,0.0,79,0.00,,FEW046,0.00,0.00,VWS V14.01,2013-02-16 05:38:00,
2013-02-16 00:43:00,23.0,17.8,30.07,WNW,286,1.0,2.0,80,0.00,,BKN048,0.00,0.00,VWS V14.01,2013-02-16 05:43:00,
2013-02-16 00:48:00,23.0,17.8,30.07,WNW,286,1.0,1.0,80,0.00,,BKN048,0.00,0.00,VWS V14.01,2013-02-16 05:48:00,
2013-02-16 00:53:00,23.0,17.8,30.07,WNW,286,1.0,1.0,80,0.00,,BKN048,0.00,0.00,VWS V14.01,2013-02-16 05:53:00,
2013-02-16 00:58:00,22.2,15.5,30.05,West,266,1.1,3.5,75,0.00,BKN,OVC,0.00,0.0,WeatherDisplay:10.37,2013-02-16 05:58:00,
2013-02-16 01:03:00,22.9,17.4,30.07,WNW,286,1.0,1.0,79,0.00,,BKN048,0.00,0.00,VWS V14.01,2013-02-16 06:03:00,
2013-02-16 01:08:00,22.8,17.6,30.07,WNW,286,1.0,1.0,80,0.00,,BKN048,0.00,0.00,VWS V14.01,2013-02-16 06:08:00,
2013-02-16 01:12:00,22.8,17.6,30.06,WNW,286,0.0,0.0,80,0.00,,BKN048,0.00,0.00,VWS V14.01,2013-02-16 06:12:00,
2013-02-16 01:17:00,22.8,17.6,30.07,WNW,286,1.0,1.0,80,0.00,,BKN048,0.00,0.00,VWS V14.01,2013-02-16 06:17:00,
2013-02-16 01:22:00,22.7,17.5,30.06,WNW,286,1.0,1.0,80,0.00,,BKN048,0.00,0.00,VWS V14.01,2013-02-16 06:22:00,
2013-02-16 01:27:00,22.0,15.3,30.05,West,266,1.9,3.5,75,0.00,BKN,OVC,0.00,0.0,WeatherDisplay:10.37,2013-02-16 06:27:00,
2013-02-16 01:32:00,22.7,17.5,30.06,WNW,286,1.0,2.0,80,0.00,,BKN048,0.00,0.00,VWS V14.01,2013-02-16 06:32:00,
2013-02-16 01:37:00,22.0,15.3,30.05,West,266,0.6,2.3,75,0.00,BKN,OVC,0.00,0.0,WeatherDisplay:10.37,2013-02-16 06:37:00,
2013-02-16 01:42:00,22.8,17.6,30.07,WNW,286,1.0,1.0,80,0.00,,BKN044,0.00,0.00,VWS V14.01,2013-02-16 06:42:00,
2013-02-16 01:47:00,22.0,15.3,30.05,West,266,0.6,3.5,75,0.00,BKN,OVC,0.00,0.0,WeatherDisplay:10.37,2013-02-16 06:47:00,
2013-02-16 01:52:00,22.7,17.8,30.06,WNW,286,0.0,0.0,81,0.00,,BKN044,0.00,0.00,VWS V14.01,2013-02-16 06:52:00,
2013-02-16 01:57:00,22.6,17.7,30.06,WNW,286,0.0,1.0,81,0.00,,BKN044,0.00,0.00,VWS V14.01,2013-02-16 06:57:00,
2013-02-16 02:02:00,22.6,17.4,30.06,WNW,286,0.0,0.0,80,0.00,,BKN044,0.00,0.00,VWS V14.01,2013-02-16 07:02:00,
2013-02-16 02:07:00,22.7,17.8,30.06,WNW,286,1.0,1.0,81,0.00,,BKN044,0.00,0.00,VWS V14.01,2013-02-16 07:07:00,
2013-02-16 02:12:00,21.9,15.5,30.05,West,266,0.0,2.3,76,0.00,BKN,OVC,0.00,0.0,WeatherDisplay:10.37,2013-02-16 07:12:00,
2013-02-16 02:17:00,22.5,17.6,30.06,WNW,286,0.0,1.0,81,0.00,,BKN044,0.00,0.00,VWS V14.01,2013-02-16 07:17:00,
2013-02-16 02:22:00,21.8,15.4,30.05,West,266,0.6,2.3,76,0.00,BKN,OVC,0.00,0.0,WeatherDisplay:10.37,2013-02-16 07:22:00,
2013-02-16 02:27:00,21.8,15.4,30.05,West,266,1.1,2.3,76,0.00,BKN,OVC,0.00,0.0,WeatherDisplay:10.37,2013-02-16 07:27:00,
2013-02-16 02:32:00,22.5,17.9,30.06,WNW,286,1.0,1.0,82,0.00,,BKN044,0.00,0.00,VWS V14.01,2013-02-16 07:32:00,
2013-02-16 02:37:00,21.8,15.4,30.05,West,266,0.1,2.3,76,0.00,BKN,OVC,0.00,0.0,WeatherDisplay:10.37,2013-02-16 07:37:00,
2013-02-16 02:42:00,22.4,17.5,30.06,WNW,286,0.0,0.0,81,0.00,,BKN046,0.00,0.00,VWS V14.01,2013-02-16 07:42:00,
2013-02-16 02:47:00,21.7,15.3,30.05,West,266,0.1,2.3,76,0.00,BKN,OVC,0.00,0.0,WeatherDisplay:10.37,2013-02-16 07:47:00,
2013-02-16 02:52:00,22.5,17.6,30.06,WNW,286,0.0,0.0,81,0.00,,BKN046,0.00,0.00,VWS V14.01,2013-02-16 07:52:00,
2013-02-16 02:57:00,22.5,17.6,30.06,WNW,286,0.0,0.0,81,0.00,,BKN046,0.00,0.00,VWS V14.01,2013-02-16 07:57:00,
2013-02-16 03:02:00,21.7,15.3,30.04,West,266,0.0,0.0,76,0.00,BKN,OVC,0.00,0.0,WeatherDisplay:10.37,2013-02-16 08:02:00,
2013-02-16 03:07:00,22.4,17.8,30.05,WNW,286,0.0,0.0,82,0.00,,BKN046,0.00,0.00,VWS V14.01,2013-02-16 08:07:00,
2013-02-16 03:12:00,21.7,15.6,30.04,West,266,0.0,1.1,77,0.00,BKN,OVC,0.00,0.0,WeatherDisplay:10.37,2013-02-16 08:12:00,
2013-02-16 03:17:00,22.3,17.6,30.05,WNW,286,0.0,0.0,82,0.00,,BKN046,0.00,0.00,VWS V14.01,2013-02-16 08:17:00,
2013-02-16 03:22:00,22.2,17.5,30.05,WNW,286,0.0,0.0,82,0.00,,BKN046,0.00,0.00,VWS V14.01,2013-02-16 08:22:00,
2013-02-16 03:27:00,22.2,17.5,30.05,WNW,286,0.0,0.0,82,0.00,,BKN046,0.00,0.00,VWS V14.01,2013-02-16 08:27:00,
2013-02-16 03:32:00,22.2,17.8,30.05,WNW,286,0.0,0.0,83,0.00,,BKN048,0.00,0.00,VWS V14.01,2013-02-16 08:32:00,
2013-02-16 03:37:00,21.5,15.4,30.04,West,266,0.0,0.0,77,0.00,BKN,OVC,0.00,0.0,WeatherDisplay:10.37,2013-02-16 08:37:00,
2013-02-16 03:42:00,22.1,17.7,30.05,WNW,286,0.0,0.0,83,0.00,,BKN048,0.00,0.00,VWS V14.01,2013-02-16 08:42:00,
2013-02-16 03:47:00,21.5,15.7,30.03,West,266,0.0,0.0,78,0.00,BKN,OVC,0.00,0.0,WeatherDisplay:10.37,2013-02-16 08:47:00,
2013-02-16 03:52:00,21.9,17.8,30.05,WNW,286,0.0,0.0,84,0.00,,BKN048,0.00,0.00,VWS V14.01,2013-02-16 08:52:00,
2013-02-16 03:57:00,21.4,15.6,30.03,West,266,0.0,0.0,78,0.00,BKN,OVC,0.00,0.0,WeatherDisplay:10.37,2013-02-16 08:57:00,
2013-02-16 04:02:00,21.9,17.8,30.05,WNW,286,0.0,0.0,84,0.00,,BKN048,0.00,0.00,VWS V14.01,2013-02-16 09:02:00,
2013-02-16 04:07:00,22.0,17.9,30.05,WNW,286,0.0,0.0,84,0.00,,BKN048,0.00,0.00,VWS V14.01,2013-02-16 09:07:00,
2013-02-16 04:12:00,22.1,18.0,30.05,WNW,286,0.0,0.0,84,0.00,,BKN048,0.00,0.00,VWS V14.01,2013-02-16 09:12:00,
2013-02-16 04:17:00,22.0,17.9,30.05,WNW,286,0.0,0.0,84,0.00,,BKN048,0.00,0.00,VWS V14.01,2013-02-16 09:17:00,
2013-02-16 04:22:00,22.1,18.0,30.05,WNW,286,0.0,0.0,84,0.00,,BKN048,0.00,0.00,VWS V14.01,2013-02-16 09:22:00,
2013-02-16 04:27:00,22.1,18.0,30.05,WNW,286,0.0,0.0,84,0.00,,BKN048,0.00,0.00,VWS V14.01,2013-02-16 09:27:00,
2013-02-16 04:32:00,22.1,18.0,30.05,WNW,286,0.0,0.0,84,0.00,,BKN048,0.00,0.00,VWS V14.01,2013-02-16 09:32:00,
2013-02-16 04:37:00,21.2,15.7,30.03,West,266,0.4,1.1,79,0.00,BKN,OVC,0.00,0.0,WeatherDisplay:10.37,2013-02-16 09:37:00,
2013-02-16 04:42:00,22.1,18.0,30.05,WNW,286,0.0,0.0,84,0.00,,BKN046,0.00,0.00,VWS V14.01,2013-02-16 09:42:00,
2013-02-16 04:47:00,22.0,17.9,30.05,WNW,286,0.0,0.0,84,0.00,,BKN046,0.00,0.00,VWS V14.01,2013-02-16 09:47:00,
2013-02-16 04:52:00,22.0,17.9,30.05,WNW,286,0.0,0.0,84,0.00,,BKN046,0.00,0.00,VWS V14.01,2013-02-16 09:52:00,
2013-02-16 04:57:00,21.2,15.7,30.03,West,266,0.0,0.0,79,0.00,BKN,OVC,0.00,0.0,WeatherDisplay:10.37,2013-02-16 09:57:00,
2013-02-16 05:02:00,21.9,17.8,30.05,WNW,286,0.0,0.0,84,0.00,,BKN046,0.00,0.00,VWS V14.01,2013-02-16 10:02:00,
2013-02-16 05:07:00,21.1,15.6,30.03,West,266,0.0,0.0,79,0.00,BKN,OVC,0.00,0.0,WeatherDisplay:10.37,2013-02-16 10:07:00,
2013-02-16 05:12:00,21.9,17.5,30.04,West,265,0.0,0.0,83,0.00,,BKN046,0.00,0.00,VWS V14.01,2013-02-16 10:12:00,
2013-02-16 05:17:00,21.8,17.4,30.05,West,265,0.0,0.0,83,0.00,,BKN046,0.00,0.00,VWS V14.01,2013-02-16 10:17:00,
2013-02-16 05:22:00,21.1,15.6,30.03,West,266,0.7,2.3,79,0.00,BKN,OVC,0.00,0.0,WeatherDisplay:10.37,2013-02-16 10:22:00,
2013-02-16 05:27:00,21.6,17.2,30.04,West,265,1.0,1.0,83,0.00,,BKN046,0.00,0.00,VWS V14.01,2013-02-16 10:27:00,
2013-02-16 05:32:00,21.4,17.3,30.04,West,265,0.0,0.0,84,0.00,,BKN046,0.00,0.00,VWS V14.01,2013-02-16 10:32:00,
2013-02-16 05:37:00,21.1,17.0,30.05,West,265,0.0,0.0,84,0.00,,BKN046,0.00,0.00,VWS V14.01,2013-02-16 10:37:00,
2013-02-16 05:42:00,20.9,15.4,30.03,West,266,1.4,2.3,79,0.00,BKN,OVC,0.00,0.0,WeatherDisplay:10.37,2013-02-16 10:42:00,
2013-02-16 05:47:00,20.2,16.1,30.05,West,265,0.0,0.0,84,0.00,,BKN046,0.00,0.00,VWS V14.01,2013-02-16 10:47:00,
2013-02-16 05:52:00,20.0,16.2,30.04,West,265,0.0,0.0,85,0.00,,BKN046,0.00,0.00,VWS V14.01,2013-02-16 10:52:00,
2013-02-16 05:57:00,20.5,14.7,30.02,West,266,0.0,0.0,78,0.00,BKN,OVC,0.00,0.0,WeatherDisplay:10.37,2013-02-16 10:57:00,
2013-02-16 06:02:00,19.7,16.2,30.04,West,265,0.0,0.0,86,0.00,,BKN046,0.00,0.00,VWS V14.01,2013-02-16 11:02:00,
2013-02-16 06:07:00,19.4,16.2,30.04,West,265,0.0,0.0,87,0.00,,BKN046,0.00,0.00,VWS V14.01,2013-02-16 11:07:00,
2013-02-16 06:12:00,19.9,14.4,30.02,West,266,0.0,0.0,79,0.00,BKN,OVC,0.00,0.0,WeatherDisplay:10.37,2013-02-16 11:12:00,
2013-02-16 06:17:00,19.3,16.3,30.04,West,265,0.0,0.0,88,0.00,,BKN046,0.00,0.00,VWS V14.01,2013-02-16 11:17:00,
2013-02-16 06:22:00,19.4,16.4,30.04,West,265,0.0,0.0,88,0.00,,BKN046,0.00,0.00,VWS V14.01,2013-02-16 11:22:00,
2013-02-16 06:27:00,19.5,14.3,30.02,West,266,0.1,1.0,80,0.00,BKN,OVC,0.00,0.0,WeatherDisplay:10.37,2013-02-16 11:27:00,
2013-02-16 06:32:00,19.4,14.2,30.02,West,266,0.5,1.1,80,0.00,BKN,OVC,0.00,0.0,WeatherDisplay:10.37,2013-02-16 11:32:00,
2013-02-16 06:37:00,20.2,17.5,30.04,West,265,0.0,0.0,89,0.00,,BKN046,0.00,0.00,VWS V14.01,2013-02-16 11:37:00,
2013-02-16 06:42:00,19.4,14.5,30.02,West,266,0.0,1.1,81,0.00,BKN,OVC,0.00,0.0,WeatherDisplay:10.37,2013-02-16 11:42:00,
2013-02-16 06:47:00,20.7,17.5,30.04,West,265,0.0,0.0,87,0.00,,BKN050,0.00,0.00,VWS V14.01,2013-02-16 11:47:00,
2013-02-16 06:52:00,20.9,17.4,30.04,West,265,1.0,1.0,86,0.00,,BKN050,0.00,0.00,VWS V14.01,2013-02-16 11:52:00,
2013-02-16 06:57:00,19.6,15.0,30.02,West,266,0.6,2.3,82,0.00,BKN,OVC,0.00,0.0,WeatherDisplay:10.37,2013-02-16 11:57:00,
2013-02-16 07:02:00,21.1,17.0,30.04,West,265,0.0,2.0,84,0.00,,BKN050,0.00,0.00,VWS V14.01,2013-02-16 12:02:00,
2013-02-16 07:07:00,19.8,14.9,30.02,West,266,0.4,2.3,81,0.00,BKN,OVC,0.00,0.0,WeatherDisplay:10.37,2013-02-16 12:07:00,
2013-02-16 07:12:00,21.2,16.6,30.04,SW,229,1.0,1.0,82,0.00,,BKN050,0.00,0.00,VWS V14.01,2013-02-16 12:12:00,
2013-02-16 07:17:00,20.0,15.1,30.02,West,266,2.2,4.0,81,0.00,BKN,OVC,0.00,5.0,WeatherDisplay:10.37,2013-02-16 12:17:00,
2013-02-16 07:22:00,21.4,16.5,30.03,ESE,115,2.0,4.0,81,0.00,,BKN050,0.00,9.00,VWS V14.01,2013-02-16 12:22:00,
2013-02-16 07:27:00,20.3,14.8,30.01,West,265,0.2,2.0,79,0.00,BKN,OVC,0.00,12.0,WeatherDisplay:10.37,2013-02-16 12:27:00,
2013-02-16 07:32:00,21.2,16.3,30.03,SE,142,1.0,1.0,81,0.00,,BKN050,0.00,16.00,VWS V14.01,2013-02-16 12:32:00,
2013-02-16 07:37:00,21.0,16.1,30.03,SE,142,1.0,2.0,81,0.00,,BKN050,0.00,18.00,VWS V14.01,2013-02-16 12:37:00,
2013-02-16 07:42:00,21.0,16.1,30.04,SE,142,1.0,1.0,81,0.00,,BKN050,0.00,23.00,VWS V14.01,2013-02-16 12:42:00,
2013-02-16 07:47:00,21.0,16.1,30.04,SE,142,0.0,0.0,81,0.00,,,0.00,51.00,VWS V14.01,2013-02-16 12:47:00,
2013-02-16 07:52:00,21.3,16.4,30.04,SE,124,1.0,2.0,81,0.00,,,0.00,60.00,VWS V14.01,2013-02-16 12:52:00,
2013-02-16 07:57:00,20.8,15.0,30.02,West,261,0.4,3.5,78,0.00,BKN,OVC,0.00,47.0,WeatherDisplay:10.37,2013-02-16 12:57:00,
2013-02-16 08:02:00,21.6,16.7,30.04,SSE,154,2.0,4.0,81,0.00,,BKN055,0.00,90.00,VWS V14.01,2013-02-16 13:02:00,
2013-02-16 08:07:00,22.1,17.2,30.04,ESE,123,2.0,3.0,81,0.00,,BKN055,0.00,130.00,VWS V14.01,2013-02-16 13:07:00,
2013-02-16 08:12:00,22.5,17.3,30.04,SSE,168,6.0,6.0,80,0.00,,BKN055,0.00,116.00,VWS V14.01,2013-02-16 13:12:00,
2013-02-16 08:17:00,22.6,16.8,30.04,SSE,149,5.0,5.0,78,0.00,,BKN055,0.00,149.00,VWS V14.01,2013-02-16 13:17:00,
2013-02-16 08:22:00,22.7,16.9,30.04,SE,136,3.0,3.0,78,0.00,,BKN055,0.00,158.00,VWS V14.01,2013-02-16 13:22:00,
2013-02-16 08:27:00,22.4,15.4,30.02,South,171,0.6,4.6,74,0.00,BKN,OVC,0.00,127.0,WeatherDisplay:10.37,2013-02-16 13:27:00,
2013-02-16 08:32:00,23.4,17.0,30.04,SE,146,2.0,4.0,76,0.00,,BKN055,0.00,111.00,VWS V14.01,2013-02-16 13:32:00,
2013-02-16 08:37:00,22.9,15.5,30.02,South,171,1.6,3.5,73,0.00,BKN,OVC,0.00,100.0,WeatherDisplay:10.37,2013-02-16 13:37:00,
2013-02-16 08:42:00,23.6,16.5,30.03,SE,125,2.0,5.0,74,0.00,,BKN210,0.00,105.00,VWS V14.01,2013-02-16 13:42:00,
2013-02-16 08:47:00,23.7,16.3,30.04,SE,140,4.0,4.0,73,0.00,,BKN210,0.00,114.00,VWS V14.01,2013-02-16 13:47:00,
2013-02-16 08:52:00,23.8,16.1,30.04,SSE,159,5.0,5.0,72,0.00,,BKN210,0.00,120.00,VWS V14.01,2013-02-16 13:52:00,
2013-02-16 08:57:00,24.0,16.3,30.04,SSE,149,2.0,3.0,72,0.00,,BKN210,0.00,135.00,VWS V14.01,2013-02-16 13:57:00,
2013-02-16 09:02:00,23.4,14.7,30.02,South,173,1.3,4.6,69,0.00,BKN,OVC,0.00,146.0,WeatherDisplay:10.37,2013-02-16 14:02:00,
2013-02-16 09:07:00,24.4,16.4,30.04,South,190,1.0,2.0,71,0.00,,BKN210,0.00,156.00,VWS V14.01,2013-02-16 14:07:00,
2013-02-16 09:12:00,23.8,14.8,30.02,South,174,2.7,4.0,68,0.00,BKN,OVC,0.00,163.0,WeatherDisplay:10.37,2013-02-16 14:12:00,
2013-02-16 09:17:00,24.5,15.5,30.04,SW,221,2.0,3.0,68,0.00,,BKN210,0.00,174.00,VWS V14.01,2013-02-16 14:17:00,
2013-02-16 09:22:00,24.2,14.5,30.02,South,175,2.1,5.8,66,0.00,BKN,OVC,0.00,186.0,WeatherDisplay:10.37,2013-02-16 14:22:00,
2013-02-16 09:27:00,24.7,15.0,30.04,SSE,161,0.0,1.0,66,0.00,,BKN210,0.00,230.00,VWS V14.01,2013-02-16 14:27:00,
2013-02-16 09:32:00,25.0,15.3,30.04,WSW,239,1.0,2.0,66,0.00,,BKN210,0.00,248.00,VWS V14.01,2013-02-16 14:32:00,
2013-02-16 09:37:00,25.1,15.4,30.04,SSW,209,2.0,4.0,66,0.00,,BKN160,0.00,257.00,VWS V14.01,2013-02-16 14:37:00,
2013-02-16 09:42:00,25.3,14.8,30.04,WSW,248,3.0,4.0,64,0.00,,BKN160,0.00,292.00,VWS V14.01,2013-02-16 14:42:00,
2013-02-16 09:47:00,25.6,14.8,30.03,WSW,242,1.0,2.0,63,0.00,,BKN160,0.00,297.00,VWS V14.01,2013-02-16 14:47:00,
2013-02-16 09:52:00,25.8,14.6,30.03,SSE,163,2.0,3.0,62,0.00,,BKN160,0.00,322.00,VWS V14.01,2013-02-16 14:52:00,
2013-02-16 09:57:00,26.0,14.4,30.03,WNW,292,1.0,3.0,61,0.00,,BKN160,0.00,387.00,VWS V14.01,2013-02-16 14:57:00,
2013-02-16 10:02:00,26.0,12.8,30.02,SSW,202,3.8,5.0,57,0.00,BKN,OVC,0.00,350.0,WeatherDisplay:10.37,2013-02-16 15:02:00,
2013-02-16 10:07:00,26.3,13.1,30.02,SSW,201,0.8,3.5,57,0.00,BKN,OVC,0.00,318.0,WeatherDisplay:10.37,2013-02-16 15:07:00,
2013-02-16 10:12:00,25.7,13.0,30.03,SSW,207,2.0,3.0,58,0.00,,BKN160,0.00,352.00,VWS V14.01,2013-02-16 15:12:00,
2013-02-16 10:17:00,26.8,12.8,30.02,SSW,205,0.2,4.6,55,0.00,BKN,OVC,0.00,357.0,WeatherDisplay:10.37,2013-02-16 15:17:00,
2013-02-16 10:22:00,26.5,13.7,30.03,NW,304,2.0,2.0,58,0.00,,BKN160,0.00,527.00,VWS V14.01,2013-02-16 15:22:00,
2013-02-16 10:27:00,26.7,14.3,30.03,NW,304,2.0,3.0,59,0.00,,BKN160,0.00,499.00,VWS V14.01,2013-02-16 15:27:00,
2013-02-16 10:32:00,27.6,12.2,30.01,SSW,206,1.7,3.5,52,0.00,BKN,OVC,0.00,466.0,WeatherDisplay:10.37,2013-02-16 15:32:00,
2013-02-16 10:37:00,26.7,13.5,30.02,SW,214,1.0,3.0,57,0.00,,BKN160,0.00,385.00,VWS V14.01,2013-02-16 15:37:00,
2013-02-16 10:41:00,28.0,12.2,30.01,SSW,206,1.6,2.3,51,0.00,BKN,OVC,0.00,378.0,WeatherDisplay:10.37,2013-02-16 15:41:00,
2013-02-16 10:46:00,27.4,15.0,30.02,South,172,3.0,6.0,59,0.00,,BKN160,0.00,631.00,VWS V14.01,2013-02-16 15:46:00,
2013-02-16 10:51:00,27.6,15.2,30.01,South,184,3.0,5.0,59,0.00,,BKN160,0.00,636.00,VWS V14.01,2013-02-16 15:51:00,
2013-02-16 10:56:00,27.0,13.4,30.01,WNW,296,3.0,3.0,56,0.00,,BKN160,0.00,621.00,VWS V14.01,2013-02-16 15:56:00,
2013-02-16 11:01:00,27.2,13.6,30.01,NW,321,3.0,3.0,56,0.00,,BKN160,0.00,621.00,VWS V14.01,2013-02-16 16:01:00,
2013-02-16 11:06:00,29.6,12.3,30.00,SSW,213,0.0,1.1,48,0.00,BKN,OVC,0.00,575.0,WeatherDisplay:10.37,2013-02-16 16:06:00,
2013-02-16 11:11:00,29.7,12.4,30.00,SW,214,3.2,5.0,48,0.00,BKN,OVC,0.00,577.0,WeatherDisplay:10.37,2013-02-16 16:11:00,
2013-02-16 11:16:00,28.1,13.2,30.01,NNE,13,2.0,2.0,53,0.00,,BKN160,0.00,747.00,VWS V14.01,2013-02-16 16:16:00,
2013-02-16 11:21:00,28.9,15.2,30.01,WSW,242,2.0,2.0,56,0.00,,BKN160,0.00,209.00,VWS V14.01,2013-02-16 16:21:00,
2013-02-16 11:26:00,30.0,11.7,30.00,SW,215,0.9,4.6,46,0.00,BKN,OVC,0.00,176.0,WeatherDisplay:10.37,2013-02-16 16:26:00,
2013-02-16 11:31:00,27.3,12.9,30.01,SW,229,1.0,2.0,54,0.00,,BKN160,0.00,223.00,VWS V14.01,2013-02-16 16:31:00,
2013-02-16 11:36:00,29.6,11.8,29.99,SW,221,2.9,8.1,47,0.00,BKN,OVC,0.00,227.0,WeatherDisplay:10.37,2013-02-16 16:36:00,
2013-02-16 11:41:00,27.6,14.4,30.00,WSW,239,2.0,4.0,57,0.00,,BKN150,0.00,265.00,VWS V14.01,2013-02-16 16:41:00,
2013-02-16 11:46:00,28.2,12.9,30.00,SSE,161,2.0,5.0,52,0.00,,BKN150,0.00,432.00,VWS V14.01,2013-02-16 16:46:00,
2013-02-16 11:51:00,28.5,12.2,30.00,ESE,121,3.0,4.0,50,0.00,,BKN150,0.00,837.00,VWS V14.01,2013-02-16 16:51:00,
2013-02-16 11:56:00,29.3,11.1,29.98,SSW,206,4.4,6.0,46,0.00,BKN,OVC,0.00,793.0,WeatherDisplay:10.37,2013-02-16 16:56:00,
2013-02-16 12:01:00,28.7,13.3,30.00,NW,319,2.0,2.0,52,0.00,,BKN150,0.00,367.00,VWS V14.01,2013-02-16 17:01:00,
2013-02-16 12:06:00,29.2,10.5,29.98,ENE,68,2.0,4.0,45,0.00,BKN,OVC,0.00,287.0,WeatherDisplay:10.37,2013-02-16 17:06:00,
2013-02-16 12:11:00,28.3,13.8,29.99,WNW,297,2.0,2.0,54,0.00,,BKN150,0.00,260.00,VWS V14.01,2013-02-16 17:11:00,
2013-02-16 12:16:00,28.2,13.7,29.99,WSW,258,1.0,2.0,54,0.00,,BKN150,0.00,218.00,VWS V14.01,2013-02-16 17:16:00,
2013-02-16 12:21:00,29.2,12.4,29.97,NW,307,1.4,4.6,49,0.00,BKN,OVC,0.00,211.0,WeatherDisplay:10.37,2013-02-16 17:21:00,
2013-02-16 12:26:00,28.3,13.8,29.99,SSW,200,1.0,1.0,54,0.00,,BKN150,0.00,195.00,VWS V14.01,2013-02-16 17:26:00,
2013-02-16 12:31:00,28.3,12.9,29.99,SW,236,3.0,3.0,52,0.00,,BKN150,0.00,192.00,VWS V14.01,2013-02-16 17:31:00,
2013-02-16 12:36:00,29.1,11.4,29.97,West,279,3.5,5.8,47,0.00,BKN,OVC,0.00,199.0,WeatherDisplay:10.37,2013-02-16 17:36:00,
2013-02-16 12:41:00,28.3,13.8,29.98,West,266,1.0,2.0,54,0.00,,BKN280,0.00,253.00,VWS V14.01,2013-02-16 17:41:00,
2013-02-16 12:46:00,29.0,11.3,29.97,West,275,1.4,4.0,47,0.00,BKN,OVC,0.00,246.0,WeatherDisplay:10.37,2013-02-16 17:46:00,
2013-02-16 12:51:00,28.5,14.0,29.98,WSW,248,3.0,3.0,54,0.00,,BKN280,0.00,221.00,VWS V14.01,2013-02-16 17:51:00,
2013-02-16 12:56:00,28.6,14.1,29.98,West,263,1.0,2.0,54,0.00,,BKN280,0.00,229.00,VWS V14.01,2013-02-16 17:56:00,
2013-02-16 13:01:00,28.4,14.7,29.97,WNW,290,3.0,3.0,56,0.00,,BKN280,0.00,213.00,VWS V14.01,2013-02-16 18:01:00,
2013-02-16 13:06:00,28.5,14.4,29.97,SSW,210,2.0,2.0,55,0.00,,BKN280,0.00,237.00,VWS V14.01,2013-02-16 18:06:00,
2013-02-16 13:11:00,28.7,14.2,29.97,SSW,209,2.0,4.0,54,0.00,,BKN280,0.00,244.00,VWS V14.01,2013-02-16 18:11:00,
2013-02-16 13:16:00,28.8,14.7,29.97,SW,215,4.0,4.0,55,0.00,,BKN280,0.00,241.00,VWS V14.01,2013-02-16 18:16:00,
2013-02-16 13:21:00,28.8,15.9,29.97,SSW,212,1.0,2.0,58,0.00,,BKN280,0.00,234.00,VWS V14.01,2013-02-16 18:21:00,
2013-02-16 13:26:00,28.7,15.0,29.96,WSW,242,2.0,2.0,56,0.00,,BKN280,0.00,225.00,VWS V14.01,2013-02-16 18:26:00,
2013-02-16 13:31:00,28.6,11.8,29.95,WSW,246,3.7,9.2,49,0.00,BKN,OVC,0.00,230.0,WeatherDisplay:10.37,2013-02-16 18:31:00,
2013-02-16 13:36:00,28.3,14.2,29.96,WNW,293,3.0,3.0,55,0.00,,BKN280,0.00,206.00,VWS V14.01,2013-02-16 18:36:00,
2013-02-16 13:41:00,28.1,15.6,29.96,WNW,298,2.0,3.0,59,0.00,,BKN070,0.00,193.00,VWS V14.01,2013-02-16 18:41:00,
2013-02-16 13:46:00,28.1,15.6,29.96,WNW,301,1.0,1.0,59,0.00,,BKN070,0.00,230.00,VWS V14.01,2013-02-16 18:46:00,
2013-02-16 13:51:00,28.7,17.3,29.96,WSW,257,2.0,2.0,62,0.00,,BKN070,0.00,229.00,VWS V14.01,2013-02-16 18:51:00,
2013-02-16 13:56:00,28.4,15.1,29.94,West,259,2.7,8.1,57,0.00,BKN,OVC,0.00,260.0,WeatherDisplay:10.37,2013-02-16 18:56:00,
2013-02-16 14:01:00,28.1,17.9,29.95,West,263,4.0,6.0,65,0.00,,BKN070,0.00,308.00,VWS V14.01,2013-02-16 19:01:00,
2013-02-16 14:06:00,28.2,18.0,29.95,West,263,3.0,3.0,65,0.00,,BKN070,0.00,350.00,VWS V14.01,2013-02-16 19:06:00,
2013-02-16 14:11:00,28.5,18.6,29.95,West,279,3.0,3.0,66,0.00,,BKN070,0.00,353.00,VWS V14.01,2013-02-16 19:11:00,
2013-02-16 14:16:00,28.1,18.2,29.95,West,267,0.0,1.0,66,0.00,,BKN070,0.00,388.00,VWS V14.01,2013-02-16 19:16:00,
2013-02-16 14:21:00,28.3,18.8,29.95,West,265,3.0,5.0,67,0.00,,BKN070,0.00,341.00,VWS V14.01,2013-02-16 19:21:00,
2013-02-16 14:26:00,28.5,16.7,29.94,West,272,2.9,6.9,61,0.00,BKN,OVC,0.00,408.0,WeatherDisplay:10.37,2013-02-16 19:26:00,
2013-02-16 14:31:00,28.4,18.5,29.95,West,260,5.0,5.0,66,0.00,,BKN070,0.00,299.00,VWS V14.01,2013-02-16 19:31:00,
2013-02-16 14:36:00,28.8,17.0,29.94,WSW,258,6.4,9.2,61,0.00,BKN,OVC,0.00,311.0,WeatherDisplay:10.37,2013-02-16 19:36:00,
2013-02-16 14:41:00,28.8,18.9,29.95,SW,234,1.0,1.0,66,0.00,,BKN130,0.00,554.00,VWS V14.01,2013-02-16 19:41:00,
2013-02-16 14:46:00,29.2,19.6,29.95,WNW,286,3.0,5.0,67,0.00,,BKN130,0.00,322.00,VWS V14.01,2013-02-16 19:46:00,
2013-02-16 14:51:00,28.7,19.1,29.95,West,273,3.0,3.0,67,0.00,,BKN130,0.00,207.00,VWS V14.01,2013-02-16 19:51:00,
2013-02-16 14:56:00,28.3,19.5,29.95,WNW,302,4.0,6.0,69,0.00,,BKN130,0.00,213.00,VWS V14.01,2013-02-16 19:56:00,
2013-02-16 15:01:00,28.7,17.3,29.93,WSW,254,4.0,8.1,62,0.00,BKN,OVC,0.00,188.0,WeatherDisplay:10.37,2013-02-16 20:01:00,
2013-02-16 15:06:00,27.6,19.4,29.95,WNW,288,2.0,4.0,71,0.00,,BKN130,0.00,165.00,VWS V14.01,2013-02-16 20:06:00,
2013-02-16 15:11:00,27.5,20.3,29.95,WNW,296,4.0,4.0,74,0.00,,BKN130,0.00,174.00,VWS V14.01,2013-02-16 20:11:00,
2013-02-16 15:16:00,27.4,20.5,29.95,WNW,287,1.0,3.0,75,0.00,,BKN130,0.00,236.00,VWS V14.01,2013-02-16 20:16:00,
2013-02-16 15:21:00,27.6,20.1,29.95,NW,305,4.0,5.0,73,0.00,,BKN130,0.00,272.00,VWS V14.01,2013-02-16 20:21:00,
2013-02-16 15:26:00,27.8,18.3,29.94,WSW,257,5.2,7.0,67,0.00,BKN,OVC,0.00,178.0,WeatherDisplay:10.37,2013-02-16 20:26:00,
2013-02-16 15:31:00,27.5,20.3,29.95,WNW,283,2.0,4.0,74,0.00,,,0.00,70.00,VWS V14.01,2013-02-16 20:31:00,
2013-02-16 15:36:00,27.1,19.9,29.95,WSW,257,4.0,4.0,74,0.00,,,0.00,54.00,VWS V14.01,2013-02-16 20:36:00,
2013-02-16 15:41:00,27.1,17.6,29.93,WSW,255,1.6,8.1,67,0.00,BKN,OVC,0.00,54.0,WeatherDisplay:10.37,2013-02-16 20:41:00,
2013-02-16 15:46:00,26.7,19.2,29.95,West,266,2.0,3.0,73,0.00,,,0.00,54.00,VWS V14.01,2013-02-16 20:46:00,
2013-02-16 15:51:00,26.7,19.5,29.95,WNW,287,2.0,3.0,74,0.00,,,0.00,47.00,VWS V14.01,2013-02-16 20:51:00,
2013-02-16 15:56:00,26.6,17.5,29.94,West,263,2.5,8.1,68,0.00,BKN,OVC,0.00,35.0,WeatherDisplay:10.37,2013-02-16 20:56:00,
2013-02-16 16:01:00,26.7,19.2,29.95,West,269,3.0,4.0,73,0.00,,BKN210,0.00,30.00,VWS V14.01,2013-02-16 21:01:00,
2013-02-16 16:06:00,26.6,19.8,29.96,West,275,4.0,4.0,75,0.00,,BKN210,0.00,40.00,VWS V14.01,2013-02-16 21:06:00,
2013-02-16 16:11:00,26.3,19.5,29.96,West,271,4.0,5.0,75,0.00,,BKN210,0.00,47.00,VWS V14.01,2013-02-16 21:11:00,
2013-02-16 16:16:00,26.2,19.7,29.96,WSW,253,5.0,5.0,76,0.00,,BKN210,0.00,49.00,VWS V14.01,2013-02-16 21:16:00,
2013-02-16 16:21:00,25.9,17.1,29.95,WSW,254,5.6,11.5,69,0.00,BKN,OVC,0.00,49.0,WeatherDisplay:10.37,2013-02-16 21:21:00,
2013-02-16 16:26:00,25.7,16.6,29.95,WSW,246,5.2,9.2,68,0.00,BKN,OVC,0.00,70.0,WeatherDisplay:10.37,2013-02-16 21:26:00,
2013-02-16 16:31:00,26.2,18.4,29.96,West,274,3.0,5.0,72,0.00,,,0.00,69.00,VWS V14.01,2013-02-16 21:31:00,
2013-02-16 16:36:00,25.7,16.3,29.95,WSW,257,6.2,8.1,67,0.00,BKN,OVC,0.00,62.0,WeatherDisplay:10.37,2013-02-16 21:36:00,
2013-02-16 16:41:00,25.7,16.3,29.95,WSW,255,4.3,8.1,67,0.00,BKN,OVC,0.00,60.0,WeatherDisplay:10.37,2013-02-16 21:41:00,
2013-02-16 16:46:00,26.1,18.3,29.97,WNW,285,2.0,4.0,72,0.00,,BKN220,0.00,54.00,VWS V14.01,2013-02-16 21:46:00,
2013-02-16 16:51:00,25.7,16.3,29.95,WSW,253,3.0,10.4,67,0.00,BKN,OVC,0.00,46.0,WeatherDisplay:10.37,2013-02-16 21:51:00,
2013-02-16 16:56:00,26.1,18.3,29.97,SW,236,4.0,5.0,72,0.00,,BKN220,0.00,33.00,VWS V14.01,2013-02-16 21:56:00,
2013-02-16 17:01:00,25.9,18.1,29.97,West,264,2.0,3.0,72,0.00,,BKN220,0.00,28.00,VWS V14.01,2013-02-16 22:01:00,
2013-02-16 17:06:00,25.8,18.4,29.97,West,271,3.0,3.0,73,0.00,,BKN220,0.00,23.00,VWS V14.01,2013-02-16 22:06:00,
2013-02-16 17:11:00,25.7,18.9,29.97,West,280,4.0,4.0,75,0.00,,BKN220,0.00,21.00,VWS V14.01,2013-02-16 22:11:00,
2013-02-16 17:16:00,25.3,16.9,29.95,WSW,255,2.5,5.8,70,0.00,BKN,OVC,0.00,18.0,WeatherDisplay:10.37,2013-02-16 22:16:00,
2013-02-16 17:21:00,25.5,19.3,29.97,West,280,1.0,2.0,77,0.00,,BKN220,0.00,18.00,VWS V14.01,2013-02-16 22:21:00,
2013-02-16 17:26:00,25.5,19.6,29.97,West,279,1.0,2.0,78,0.00,,BKN220,0.00,12.00,VWS V14.01,2013-02-16 22:26:00,
2013-02-16 17:31:00,25.2,17.4,29.95,WSW,255,0.0,3.5,72,0.00,OVC,,0.00,7.0,WeatherDisplay:10.37,2013-02-16 22:31:00,
2013-02-16 17:36:00,25.5,19.6,29.97,West,271,3.0,3.0,78,0.00,,OVC150,0.00,0.00,VWS V14.01,2013-02-16 22:36:00,
2013-02-16 17:41:00,25.1,17.7,29.96,WSW,254,2.5,5.0,73,0.00,OVC,,0.00,0.0,WeatherDisplay:10.37,2013-02-16 22:41:00,
2013-02-16 17:46:00,25.6,19.4,29.97,West,266,4.0,4.0,77,0.00,,OVC150,0.00,0.00,VWS V14.01,2013-02-16 22:46:00,
2013-02-16 17:51:00,25.2,17.8,29.96,WSW,250,3.8,9.2,73,0.00,OVC,,0.00,0.0,WeatherDisplay:10.37,2013-02-16 22:51:00,
2013-02-16 17:56:00,25.5,19.9,29.98,West,261,3.0,4.0,79,0.00,,OVC150,0.00,0.00,VWS V14.01,2013-02-16 22:56:00,
2013-02-16 18:01:00,25.0,18.2,29.97,West,261,5.9,9.2,75,0.00,OVC,,0.00,0.0,WeatherDisplay:10.37,2013-02-16 23:01:00,
2013-02-16 18:06:00,24.9,20.2,29.98,West,259,2.0,4.0,82,0.00,,OVC150,0.00,0.00,VWS V14.01,2013-02-16 23:06:00,
2013-02-16 18:11:00,24.6,18.4,29.97,WSW,253,4.9,9.2,77,0.00,OVC,,0.00,0.0,WeatherDisplay:10.37,2013-02-16 23:11:00,
2013-02-16 18:16:00,24.3,20.5,29.98,West,269,2.0,4.0,85,0.00,,OVC150,0.00,0.00,VWS V14.01,2013-02-16 23:16:00,
2013-02-16 18:21:00,23.9,18.6,29.97,WSW,255,6.2,9.0,80,0.00,-SN,OVC,0.00,0.0,WeatherDisplay:10.37,2013-02-16 23:21:00,
2013-02-16 18:26:00,23.7,20.4,29.98,West,264,3.0,4.0,87,0.00,,OVC150,0.00,0.00,VWS V14.01,2013-02-16 23:26:00,
2013-02-16 18:31:00,23.6,20.3,29.98,West,264,3.0,3.0,87,0.00,,OVC150,0.00,0.00,VWS V14.01,2013-02-16 23:31:00,
2013-02-16 18:36:00,23.3,18.6,29.97,WSW,253,4.0,8.1,82,0.00,-SN,OVC,0.00,0.0,WeatherDisplay:10.37,2013-02-16 23:36:00,
2013-02-16 18:41:00,23.1,18.4,29.97,West,260,4.0,8.1,82,0.00,-SN,OVC,0.00,0.0,WeatherDisplay:10.37,2013-02-16 23:41:00,
2013-02-16 18:46:00,22.9,19.6,29.99,West,269,2.0,3.0,87,0.00,,,0.00,0.00,VWS V14.01,2013-02-16 23:46:00,
2013-02-16 18:51:00,22.7,18.0,29.98,West,261,3.4,5.0,82,0.00,-SN,OVC,0.00,0.0,WeatherDisplay:10.37,2013-02-16 23:51:00,
2013-02-16 18:56:00,22.6,19.3,29.99,WNW,289,2.0,4.0,87,0.00,,,0.00,0.00,VWS V14.01,2013-02-16 23:56:00,
2013-02-16 19:01:00,22.4,17.7,29.97,West,261,1.1,3.5,82,0.00,-SN,OVC,0.00,0.0,WeatherDisplay:10.37,2013-02-17 00:01:00,
2013-02-16 19:06:00,22.4,18.6,29.99,WNW,289,1.0,2.0,85,0.00,,,0.00,0.00,VWS V14.01,2013-02-17 00:06:00,
2013-02-16 19:11:00,22.1,17.2,29.97,West,260,3.3,6.0,81,0.00,-SN,OVC,0.00,0.0,WeatherDisplay:10.37,2013-02-17 00:11:00,
2013-02-16 19:16:00,22.0,17.6,29.99,WNW,288,1.0,2.0,83,0.00,,BKN150,0.00,0.00,VWS V14.01,2013-02-17 00:16:00,
2013-02-16 19:21:00,21.9,17.0,29.99,WNW,288,1.0,1.0,81,0.00,,BKN150,0.00,0.00,VWS V14.01,2013-02-17 00:21:00,
2013-02-16 19:26:00,21.9,16.4,29.99,WNW,288,1.0,1.0,79,0.00,,BKN150,0.00,0.00,VWS V14.01,2013-02-17 00:26:00,
2013-02-16 19:31:00,21.5,15.4,29.97,West,260,1.5,3.5,77,0.00,BKN,OVC,0.00,0.0,WeatherDisplay:10.37,2013-02-17 00:31:00,
2013-02-16 19:36:00,22.1,15.1,29.99,WNW,288,0.0,1.0,74,0.00,,BKN150,0.00,0.00,VWS V14.01,2013-02-17 00:36:00,
2013-02-16 19:40:00,21.3,14.3,29.97,West,260,0.4,2.3,74,0.00,BKN,OVC,0.00,0.0,WeatherDisplay:10.37,2013-02-17 00:40:00,
2013-02-16 19:45:00,21.2,13.6,29.97,West,260,0.4,3.5,72,0.00,BKN,OVC,0.00,0.0,WeatherDisplay:10.37,2013-02-17 00:45:00,
2013-02-16 19:50:00,20.0,13.7,29.98,WNW,288,0.0,0.0,76,0.00,,BKN150,0.00,0.00,VWS V14.01,2013-02-17 00:50:00,
2013-02-16 19:55:00,19.7,13.1,29.99,WNW,288,0.0,0.0,75,0.00,,BKN150,0.00,0.00,VWS V14.01,2013-02-17 00:55:00,
2013-02-16 20:00:00,20.9,12.6,29.97,West,260,0.0,0.0,70,0.00,BKN,OVC,0.00,0.0,WeatherDisplay:10.37,2013-02-17 01:00:00,
2013-02-16 20:05:00,18.8,13.1,29.98,WNW,288,0.0,0.0,78,0.00,,BKN150,0.00,0.00,VWS V14.01,2013-02-17 01:05:00,
2013-02-16 20:10:00,18.6,12.9,29.98,WNW,288,0.0,0.0,78,0.00,,BKN150,0.00,0.00,VWS V14.01,2013-02-17 01:10:00,
2013-02-16 20:15:00,18.5,12.5,29.98,WNW,288,0.0,0.0,77,0.00,,BKN150,0.00,0.00,VWS V14.01,2013-02-17 01:15:00,
2013-02-16 20:20:00,18.2,12.5,29.98,WNW,288,0.0,0.0,78,0.00,,BKN150,0.00,0.00,VWS V14.01,2013-02-17 01:20:00,
2013-02-16 20:25:00,18.1,12.7,29.98,WNW,288,0.0,0.0,79,0.00,,BKN150,0.00,0.00,VWS V14.01,2013-02-17 01:25:00,
2013-02-16 20:30:00,18.1,12.7,29.98,WNW,288,0.0,0.0,79,0.00,,BKN150,0.00,0.00,VWS V14.01,2013-02-17 01:30:00,
2013-02-16 20:35:00,19.7,10.8,29.96,West,260,0.3,1.0,68,0.00,SCT,OVC,0.00,0.0,WeatherDisplay:10.37,2013-02-17 01:35:00,
2013-02-16 20:40:00,17.6,12.2,29.97,WNW,288,0.0,0.0,79,0.00,,SCT075,0.00,0.00,VWS V14.01,2013-02-17 01:40:00,
2013-02-16 20:45:00,17.4,12.0,29.97,WNW,288,0.0,0.0,79,0.00,,SCT075,0.00,0.00,VWS V14.01,2013-02-17 01:45:00,
2013-02-16 20:50:00,17.2,11.5,29.97,WNW,288,0.0,0.0,78,0.00,,SCT075,0.00,0.00,VWS V14.01,2013-02-17 01:50:00,
2013-02-16 20:55:00,19.1,9.9,29.95,West,260,2.1,3.5,67,0.00,SCT,OVC,0.00,0.0,WeatherDisplay:10.37,2013-02-17 01:55:00,
2013-02-16 21:00:00,16.7,11.3,29.97,WNW,288,0.0,0.0,79,0.00,,SCT075,0.00,0.00,VWS V14.01,2013-02-17 02:00:00,
2013-02-16 21:05:00,16.7,11.1,29.97,WNW,288,0.0,0.0,78,0.00,,SCT075,0.00,0.00,VWS V14.01,2013-02-17 02:05:00,
2013-02-16 21:10:00,19.1,9.3,29.95,West,260,1.7,3.5,65,0.00,SCT,OVC,0.00,0.0,WeatherDisplay:10.37,2013-02-17 02:10:00,
2013-02-16 21:15:00,17.7,11.4,29.97,WNW,288,1.0,1.0,76,0.00,,SCT075,0.00,0.00,VWS V14.01,2013-02-17 02:15:00,
2013-02-16 21:20:00,19.2,9.4,29.95,West,260,1.2,3.5,65,0.00,SCT,OVC,0.00,0.0,WeatherDisplay:10.37,2013-02-17 02:20:00,
2013-02-16 21:25:00,19.2,9.7,29.95,West,260,0.3,1.1,66,0.00,SCT,OVC,0.00,0.0,WeatherDisplay:10.37,2013-02-17 02:25:00,
2013-02-16 21:30:00,17.9,11.6,29.96,WNW,288,0.0,0.0,76,0.00,,,0.00,0.00,VWS V14.01,2013-02-17 02:30:00,
2013-02-16 21:35:00,17.6,11.3,29.96,WNW,288,0.0,0.0,76,0.00,,SCT075,0.00,0.00,VWS V14.01,2013-02-17 02:35:00,
2013-02-16 21:40:00,17.2,11.2,29.96,WNW,288,0.0,0.0,77,0.00,,SCT075,0.00,0.00,VWS V14.01,2013-02-17 02:40:00,
2013-02-16 21:45:00,19.0,9.5,29.94,West,260,0.0,1.1,66,0.00,SCT,OVC,0.00,0.0,WeatherDisplay:10.37,2013-02-17 02:45:00,
2013-02-16 21:50:00,16.3,10.9,29.96,WNW,288,0.0,0.0,79,0.00,,SCT075,0.00,0.00,VWS V14.01,2013-02-17 02:50:00,
2013-02-16 21:55:00,18.8,9.6,29.94,West,260,0.0,0.0,67,0.00,SCT,OVC,0.00,0.0,WeatherDisplay:10.37,2013-02-17 02:55:00,
2013-02-16 22:00:00,15.6,11.1,29.96,WNW,288,0.0,0.0,82,0.00,,SCT075,0.00,0.00,VWS V14.01,2013-02-17 03:00:00,
2013-02-16 22:05:00,15.3,10.8,29.95,WNW,288,0.0,0.0,82,0.00,,SCT075,0.00,0.00,VWS V14.01,2013-02-17 03:05:00,
2013-02-16 22:10:00,14.9,10.4,29.95,WNW,288,0.0,0.0,82,0.00,,SCT075,0.00,0.00,VWS V14.01,2013-02-17 03:10:00,
2013-02-16 22:15:00,18.0,9.2,29.94,West,260,0.0,0.0,68,0.00,SCT,OVC,0.00,0.0,WeatherDisplay:10.37,2013-02-17 03:15:00,
2013-02-16 22:20:00,15.0,10.8,29.95,WNW,288,0.0,0.0,83,0.00,,SCT075,0.00,0.00,VWS V14.01,2013-02-17 03:20:00,
2013-02-16 22:25:00,15.1,10.9,29.95,WNW,288,0.0,0.0,83,0.00,,SCT075,0.00,0.00,VWS V14.01,2013-02-17 03:25:00,
2013-02-16 22:30:00,14.5,10.3,29.95,WNW,288,0.0,0.0,83,0.00,,SCT075,0.00,0.00,VWS V14.01,2013-02-17 03:30:00,
2013-02-16 22:35:00,14.2,10.3,29.95,WNW,288,0.0,0.0,84,0.00,,SCT075,0.00,0.00,VWS V14.01,2013-02-17 03:35:00,
2013-02-16 22:40:00,13.9,10.2,29.94,WNW,288,0.0,0.0,85,0.00,,SCT075,0.00,0.00,VWS V14.01,2013-02-17 03:40:00,
2013-02-16 22:45:00,13.7,10.3,29.94,WNW,288,0.0,0.0,86,0.00,,SCT075,0.00,0.00,VWS V14.01,2013-02-17 03:45:00,
2013-02-16 22:50:00,13.7,10.6,29.94,WNW,288,0.0,0.0,87,0.00,,SCT075,0.00,0.00,VWS V14.01,2013-02-17 03:50:00,
2013-02-16 22:55:00,16.1,9.3,29.93,West,260,0.0,1.1,74,0.00,SCT,OVC,0.00,0.0,WeatherDisplay:10.37,2013-02-17 03:55:00,
2013-02-16 23:00:00,16.0,9.5,29.93,West,260,0.1,1.1,75,0.00,SCT,OVC,0.00,0.0,WeatherDisplay:10.37,2013-02-17 04:00:00,
2013-02-16 23:05:00,14.4,11.5,29.94,WNW,288,0.0,0.0,88,0.00,,SCT075,0.00,0.00,VWS V14.01,2013-02-17 04:05:00,
2013-02-16 23:10:00,15.9,9.7,29.92,West,260,0.0,1.1,76,0.00,SCT,OVC,0.00,0.0,WeatherDisplay:10.37,2013-02-17 04:10:00,
2013-02-16 23:15:00,15.7,13.0,29.94,WNW,288,0.0,0.0,89,0.00,,SCT075,0.00,0.00,VWS V14.01,2013-02-17 04:15:00,
2013-02-16 23:20:00,16.0,10.1,29.92,West,260,0.0,0.0,77,0.00,-SN,OVC,0.00,0.0,WeatherDisplay:10.37,2013-02-17 04:20:00,
2013-02-16 23:25:00,16.5,13.6,29.93,WNW,288,0.0,0.0,88,0.00,,SCT075,0.00,0.00,VWS V14.01,2013-02-17 04:25:00,
2013-02-16 23:30:00,16.4,13.5,29.93,WNW,288,0.0,0.0,88,0.00,,SCT075,0.00,0.00,VWS V14.01,2013-02-17 04:30:00,
2013-02-16 23:35:00,16.4,11.0,29.91,West,260,0.0,0.0,79,0.00,-SN,OVC,0.00,0.0,WeatherDisplay:10.37,2013-02-17 04:35:00,
2013-02-16 23:40:00,16.1,13.2,29.92,WNW,288,1.0,1.0,88,0.00,,,0.00,0.00,VWS V14.01,2013-02-17 04:40:00,
2013-02-16 23:45:00,16.1,13.2,29.92,WNW,288,1.0,1.0,88,0.00,,,0.00,0.00,VWS V14.01,2013-02-17 04:45:00,
2013-02-16 23:50:00,16.7,14.0,29.92,WNW,284,1.0,1.0,89,0.00,,,0.00,0.00,VWS V14.01,2013-02-17 04:50:00,
2013-02-16 23:55:00,16.5,11.4,29.90,West,260,1.5,2.3,80,0.00,-SN,OVC,0.00,0.0,WeatherDisplay:10.37,2013-02-17 04:55:00,